Location: Paddlesworth
(51.1000°N, 1.1333°E)
Time: 23:15:07
(UTC+00:00)

Cosmos 1544 - Pass Details

Date: 11 May 2021
Orbit: 471 x 487 km, 82.5° (Epoch: 24 June)

Event Time Altitude Azimuth Distance (km) Brightness Sun altitude
Rises 21:30:07 0° 355° (N) 2,539 7.8 -14.1°
Reaches altitude 10° 21:32:19 10° 4° (N) 1,658 6.6 -14.3°
Maximum altitude 21:35:43 38° 74° (ENE) 750 3.8 -14.6°
Enters shadow 21:37:08 26° 121° (ESE) 967 4.0 -14.8°
